Change the Weather History Date:

Tuesday, March 29, 2011

  Actual Average Record
Temperature  
Mean Temperature 34 °F 39 °F  
Max Temperature 49 °F 52 °F 72 °F (1943)
Min Temperature 19 °F 27 °F -4 °F (1987)
Degree Days  
Heating Degree Days 31 26  
Month to date heating degree days 820 865  
Since 1 July heating degree days 6116 6569  
Cooling Degree Days 0 0  
Month to date cooling degree days 0 0  
Year to date cooling degree days 0 0  
Moisture  
Dew Point 16 °F    
Average Humidity 47    
Maximum Humidity 78    
Minimum Humidity 15    
Precipitation  
Precipitation 0.00 in 0.05 in 0.99 in (1998)
Month to date precipitation 0.27 1.06  
Year to date precipitation 2.25 2.05  
Snow  
Snow T in 0.60 in - ()
Month to date snowfall 2.6 14.9  
Since 1 July snowfall 48.1 68.5  
Snow Depth 1.00 in    
Sea Level Pressure  
Sea Level Pressure 30.06 in    
Wind  
Wind Speed 6 mph (WSW)    
Max Wind Speed 16 mph    
Max Gust Speed 24 mph    
Visibility 10 miles    
Events      
T = Trace of Precipitation, MM = Missing Value Source: NWS Daily Summary

Daily Weather History Graph

Daily Weather History Graph

Search for Another Location

Airport or City:

Trip Planner

Search our weather history database for the weather conditions in past years. The results will help you decide how hot, cold, wet, or windy it might be!

Date:

Astronomy

Mar. 29, 2011 Rise Set
Actual Time 7:02 AM MDT 7:37 PM MDT
Civil Twilight 6:34 AM MDT 8:05 PM MDT
Nautical Twilight 6:00 AM MDT 8:39 PM MDT
Astronomical Twilight 5:26 AM MDT 9:14 PM MDT
Moon 4:35 AM MDT (3/29) 3:15 PM MDT (3/29)
Length of Visible Light 13h 31m
Length of Day
12h 34m
Waning Crescent, 20% of the Moon is Illuminated
Mar 29
Waning Crescent
Apr 3
New
Apr 11
First Quarter
Apr 17
Full
Apr 24
Last Quarter

Hourly Weather History & Observations

Time (MDT) Temp. Windchill Dew Point Humidity Pressure Visibility Wind Dir Wind Speed Gust Speed Precip Events Conditions
12:53 AM 30.0 °F 21.7 °F 25.0 °F 82% 30.06 in 10.0 mi WNW 9.2 mph - N/A   Overcast
1:53 AM 30.0 °F 21.7 °F 24.1 °F 79% 30.07 in 10.0 mi WSW 9.2 mph - N/A   Overcast
2:53 AM 30.0 °F 23.2 °F 23.0 °F 75% 30.08 in 10.0 mi WSW 6.9 mph - N/A   Overcast
3:53 AM 28.0 °F 21.7 °F 21.0 °F 75% 30.11 in 10.0 mi SW 5.8 mph - N/A   Overcast
4:53 AM 27.0 °F - 18.0 °F 69% 30.12 in 10.0 mi Calm Calm - N/A   Clear
5:53 AM 24.1 °F 17.0 °F 14.0 °F 65% 30.14 in 10.0 mi SW 5.8 mph - N/A   Clear
6:53 AM 21.9 °F - 12.9 °F 68% 30.17 in 10.0 mi Calm Calm - N/A   Clear
7:53 AM 23.0 °F 13.9 °F 12.9 °F 65% 30.22 in 10.0 mi NW 8.1 mph - N/A   Clear
8:53 AM 27.0 °F 21.6 °F 17.1 °F 66% 30.19 in 10.0 mi WSW 4.6 mph - N/A   Clear
9:53 AM 28.0 °F 22.8 °F 21.0 °F 75% 30.17 in 10.0 mi ESE 4.6 mph - N/A   Clear
10:53 AM 35.1 °F 28.6 °F 25.0 °F 67% 30.13 in 10.0 mi ESE 8.1 mph - N/A   Clear
11:53 AM 39.0 °F 32.8 °F 19.9 °F 46% 30.10 in 10.0 mi SE 9.2 mph - N/A   Clear
12:53 PM 42.1 °F 39.2 °F 19.9 °F 41% 30.07 in 10.0 mi Variable 4.6 mph - N/A   Clear
1:53 PM 43.0 °F 38.8 °F 15.1 °F 32% 30.04 in 10.0 mi SSE 6.9 mph - N/A   Clear
2:53 PM 44.1 °F 41.5 °F 12.9 °F 28% 30.01 in 10.0 mi SW 4.6 mph - N/A   Clear
3:53 PM 46.0 °F 43.9 °F 15.1 °F 29% 29.98 in 10.0 mi Variable 4.6 mph - N/A   Clear
4:53 PM 48.9 °F - 10.9 °F 22% 29.94 in 10.0 mi Variable 4.6 mph - N/A   Partly Cloudy
5:37 PM 46.4 °F 39.5 °F 3.2 °F 17% 29.93 in 10.0 mi West 17.3 mph 25.3 mph N/A   Clear
5:53 PM 48.0 °F - 3.9 °F 16% 29.94 in 10.0 mi West 16.1 mph 24.2 mph N/A   Clear
6:53 PM 43.0 °F 38.8 °F 9.0 °F 25% 29.97 in 10.0 mi WNW 6.9 mph - N/A   Clear
7:53 PM 39.0 °F 34.8 °F 12.0 °F 33% 29.99 in 10.0 mi West 5.8 mph - N/A   Clear
8:53 PM 37.9 °F - 12.9 °F 36% 29.99 in 10.0 mi Calm Calm - N/A   Partly Cloudy
9:53 PM 36.0 °F 29.6 °F 17.1 °F 46% 30.02 in 10.0 mi NNW 8.1 mph - N/A   Clear
10:53 PM 36.0 °F 28.5 °F 17.1 °F 46% 30.00 in 10.0 mi WNW 10.4 mph - N/A   Clear
11:53 PM 33.1 °F 30.0 °F 19.0 °F 56% 29.99 in 10.0 mi WNW 3.5 mph - N/A   Partly Cloudy